ARIANE 2 DEB, 40787

Orbit data source: Space-Track

ARIANE 2 DEB, 40787 is space debris in HEO originally from a launch on Fri, 27 Jan 1989 UTC launched from the French Guiana (FRGUI). Debris objects in space refer to the collection of defunct objects orbiting the Earth. Examples of debris include non-operational satellites, rocket bodies, and fragments generated from explosions, collisions, or faulty payload assembly.

Loading next visibility...
Identifier
40787, 1989-006CG
Orbit
HEO
Country
Flag of FRFR
Related business
Manufacturer
EADS/LV
Mission
Spacecraft
Bus & Motor
Unknown
Mass
Unknown
Launch date (UTC)
1989-01-27 (37 years ago)
Launch vehicle
Unknown
Launch site
French Guiana (FRGUI)
Object type
Payload
Rocket body
Debris
Shape & HBR
Unknown shape, 1.1 m
Radar Cross Section
Medium (>0.1 m² and <1 m²)

Expand to show TLE details & history
Last TLE update: 1 week ago

TLE from 1 week ago
0 ARIANE 2 DEB
1 40787U 89006CG  25279.73878785 -.00000046  00000-0  24312-3 0  9993
2 40787   8.6135 341.6735 7131265 277.9134  47.6724  2.25279345 97733
Epoch: 2025-10-06T17:43Z
TLE epoch observation values (Epoch: 2025-10-06T17:43:51.270Z)
Latitude
6.81803°
Longitude
112.01399°
Altitude
17,767.59 km
Speed
4.099 km/s
True Right ascension
02h 14m 27s
True Declination
6° 48' 22"
Sunlit
Object was in daylight at epoch
Visualization orbit readout
Latitude
Unknown
Longitude
Unknown
Altitude
Unknown
Speed
Unknown
Apparent Right ascension
Unknown
Apparent Declination
Unknown
Sunlit
N/A
Visualization observer readout
Local Sidereal Time
08:11:24
Azimuth
Unknown
Elevation
Unknown
Doppler factor
Unknown
Orbital elements
Apogee altitude
35,739.703 km
Perigee altitude
674.753 km
Semi-major axis
24,585.365 km
Eccentricity
0.71313
Inclination
8.6135°
RAAN
341.6735°
Arg. of periapsis
277.9134°
True anomaly
134.44114°
Mean anomaly
47.6724°
Eccentric anomaly
88.51787°
Mean motion
0.56303 °/min
Orbital period
639.4 mins
BSTAR
0.00024312
Loading maneuver chart data...
Computing Atmospheric mass density...
Loading historical data...
Loading historical data...
Loading historical data...
Loading historical data...
Loading historical data...
Loading historical data...
Loading historical data...

Documentation

Showing up to 5 results
|